Location: Carrières
(48.9495°N, 2.0407°E)
Time: 20:47:29
(UTC+00:00)

Daily predictions for brighter satellites

Satellite Brightness Start Highest point End
(mag) Time Altitude Azimuth Time Altitude Azimuth Time Altitude Azimuth
Cosmos 2263 Rocket 2.7 17:08:49 10° NNW 17:14:01 38° NE 17:19:11 10° ESE
ATLAS 5 CENTAUR R/B 1.6 17:11:14 10° SW 17:14:51 61° NW 17:18:59 10° NE
Lacrosse 4 Rocket 4.0 17:13:37 10° NW 17:14:53 11° NNW 17:16:10 10° N
NOSS 2-1 (D) 4.2 17:11:46 10° NNW 17:15:33 38° NE 17:20:38 10° ESE
Okean O Rocket 3.5 17:14:34 10° ENE 17:15:54 11° NE 17:17:13 10° NE
Meteor 2-5 Rocket 3.9 17:14:52 10° S 17:20:45 89° E 17:26:33 10° NNE
Cosmos 1656 4.2 17:16:06 10° SW 17:21:33 61° WNW 17:26:58 10° NNE
CZ-2C R/B 3.8 17:17:00 10° N 17:22:15 48° WNW 17:27:34 10° SW
Cosmos 2082 3.7 17:16:59 10° NNW 17:22:35 61° ENE 17:28:08 10° SE
CZ-4C R/B 4.5 17:20:25 10° NE 17:23:38 23° E 17:26:42 10° SSE
Cosmos 1544 Rocket 4.0 17:20:41 10° N 17:24:46 39° ENE 17:28:50 10° SE
Cosmos 2228 4.3 17:22:04 10° NNE 17:25:03 18° ENE 17:28:02 10° ESE
SL-08 R/B 3.5 17:20:12 10° NNE 17:25:06 62° ESE 17:29:59 10° S
DELTA 2 DEB (DPAF) 4.2 17:22:31 10° NNE 17:26:52 56° ESE 17:31:10 10° S
ATLAS 2AS CENTAUR R/B 3.5 17:21:00 10° NW 17:27:30 34° NNE 17:33:39 10° E
Cosmos 2279 Rocket 4.0 17:25:15 10° S 17:31:23 72° E 17:37:34 10° NNE
H-2A R/B 4.3 17:29:08 10° SSW 17:33:37 30° W 17:38:14 10° NNW
ISS -3.4 17:30:50 10° WNW 17:34:10 52° N 17:37:02 13° E
CZ-4B R/B 4.0 17:32:54 10° ESE 17:37:21 28° ENE 17:41:53 10° N
Cosmos 1455 Rocket 3.3 17:33:49 10° NNW 17:38:12 74° W 17:42:31 10° S
Cosmos 1867 3.6 17:36:33 10° NW 17:42:03 88° SW 17:47:29 10° SE
ATLAS CENTAUR R/B 2.8 17:38:19 10° S 17:42:14 26° ESE 17:45:16 14° ENE
Cosmos 614 Rocket 4.0 17:37:12 10° SSW 17:42:26 88° ESE 17:47:40 10° NNE
SMAP 4.2 17:38:11 10° S 17:42:41 48° W 17:47:12 10° NNW
NOSS 3-4 (A) 4.1 17:37:17 10° NW 17:44:10 79° SW 17:52:03 10° SSE
NOSS 3-4 (C) 4.1 17:37:23 10° NW 17:44:17 79° SW 17:52:10 10° SSE
Cosmos 1269 Rocket 4.4 17:39:19 10° SSW 17:44:34 69° WNW 17:49:53 10° NNE
Cosmos 407 Rocket 4.4 17:41:51 10° SSE 17:46:08 27° E 17:50:15 11° NE
Cosmos 1844 Rocket 4.0 17:42:28 10° N 17:46:34 20° NE 17:49:18 15° ENE
Cosmos 2360 4.4 17:41:50 10° SSW 17:47:31 79° WNW 17:53:15 10° NNE
SKYMED 2 3.7 17:45:39 10° NNE 17:49:55 52° E 17:54:09 10° S
NOAA 6 4.3 17:46:33 10° S 17:51:41 74° WSW 17:56:52 10° NNW
Tiangong 0.6 17:50:52 10° SW 17:52:52 16° SSW 17:54:51 10° SSE
Meteor 2-17 Rocket 4.4 17:47:35 10° N 17:53:47 79° E 17:59:57 10° SSE
SL-4 R/B 2.0 17:53:00 10° SW 17:56:24 51° SSE 17:58:33 21° E
Cosmos 1340 Rocket 3.2 17:55:34 10° SSE 17:59:07 36° E 18:02:42 10° NNE
Cosmos 1408 3.4 17:56:50 10° SSE 17:59:41 25° E 18:00:40 22° ENE
USA 290 3.0 17:57:58 10° S 18:00:53 32° ESE 18:02:01 24° ENE
BREEZE-M DEB (TANK) 2.9 18:00:15 10° WSW 18:03:15 56° SSE 18:07:22 18° E
Cosmos 1238 Rocket 4.2 18:02:17 10° NNW 18:06:39 53° W 18:11:49 10° S
PAYLOAD B 4.2 18:03:14 10° SSE 18:08:41 65° ENE 18:14:09 10° N
Cosmos 1655 Rocket 3.9 18:03:13 10° N 18:09:32 76° E 18:15:46 10° SSE
YAOGAN 1 2.7 18:05:39 10° SE 18:09:47 48° ENE 18:13:57 10° N
NOSS 2-1 (E) 3.8 18:05:38 10° NW 18:09:55 79° NE 18:16:02 10° SE
Cosmos 2322 Rocket 3.7 18:06:55 10° SE 18:09:28 16° ESE 18:09:28 16° ESE
Cosmos 1607 4.0 18:05:30 10° SSW 18:11:26 56° ESE 18:16:06 17° NE
Cosmos 1140 Rocket 3.6 18:06:31 10° S 18:11:32 51° ESE 18:16:04 12° NNE
Cosmos 2227 Rocket 4.4 18:07:22 10° NW 18:12:09 28° WSW 18:16:53 10° SSW
Cosmos 1703 3.6 18:08:38 10° SSW 18:12:25 66° W 18:16:15 10° N
SL-08 ROCKET BODY 4.4 18:07:02 10° N 18:12:48 51° ENE 18:18:28 10° SSE
Cosmos 1975 Rocket 4.4 18:11:55 10° SW 18:16:10 42° WNW 18:20:25 10° N
CZ-4 R/B 2.0 18:12:34 10° SE 18:16:21 35° ENE 18:20:08 10° N
Cosmos 1184 Rocket 3.1 18:15:10 10° N 18:16:38 31° N 18:16:38 31° N
Cosmos 1536 Rocket 3.4 18:15:33 10° S 18:19:48 64° E 18:24:07 10° NNE
SL-16 R/B 3.0 18:15:31 10° SSE 18:20:15 28° ESE 18:21:31 26° E
Cosmos 1023 Rocket 4.4 18:16:05 10° S 18:21:11 64° ESE 18:25:41 13° NNE
COSMOS 2455 2.8 18:16:51 10° SSW 18:22:52 89° SE 18:28:06 14° NE
Cosmos 2369 3.8 18:23:16 10° SSW 18:28:55 76° WNW 18:34:31 11° NNE
Cosmos 44 3.2 18:24:54 10° SW 18:29:13 71° NW 18:32:00 23° NNE
Cosmos 1892 3.2 18:26:39 10° SSE 18:29:28 36° ESE 18:29:28 36° ESE
Cosmos 1606 Rocket 3.7 18:29:10 10° N 18:33:21 47° ENE 18:35:45 23° SE
RESURS DK-1 4.2 18:31:40 10° N 18:33:19 16° NNE 18:33:19 16° NNE
NOAA 15 4.5 18:29:46 10° SSE 18:35:00 81° ENE 18:40:18 10° NNW
Cosmos 2251 Rocket 3.5 18:29:51 10° SSW 18:35:11 88° WNW 18:40:21 11° NNE
Cosmos 468 Rocket 4.4 18:32:15 10° NNW 18:37:09 39° ENE 18:37:59 37° E
COSMO-SKYMED 1 3.3 18:33:44 10° N 18:37:58 53° WNW 18:42:12 10° SSW
Cosmos 1980 Rocket 2.6 18:34:38 10° SW 18:40:14 64° WNW 18:45:36 12° NNE
Meteor 1-11 4.3 18:37:41 10° S 18:43:20 53° E 18:48:58 10° NNE
Lacrosse 5 3.6 18:40:18 10° SSE 18:42:20 17° SE 18:42:20 17° SE
Cosmos 1241 Rocket 4.5 18:38:23 10° SSW 18:44:52 79° SE 18:49:05 24° NE
Cosmos 1328 3.8 18:41:25 10° SSW 18:45:24 80° W 18:48:48 14° N
BlueWalker 3 1.9 18:42:25 10° WSW 18:46:17 81° NNW 18:46:49 64° NE
Cosmos 1697 Rocket 4.2 18:43:31 10° WSW 18:48:36 33° NW 18:53:43 10° NNE
Lacrosse 5 rocket 2.5 18:45:46 10° NW 18:48:23 25° N 18:48:23 25° N
PSLV R/B 4.3 18:46:10 10° S 18:49:43 54° W 18:53:21 10° NNW
CSL-04 Rocket 4.0 18:50:17 40° ENE 18:50:17 40° ENE 18:55:07 10° N
Okean O Rocket 1.4 18:47:21 12° SSE 18:51:26 75° ENE 18:55:51 10° N
IRIDIUM 103 4.4 18:47:42 10° N 18:52:49 51° E 18:54:31 37° SE
Feng Yun 1-1 Rocket 4.1 18:48:50 10° SSE 18:54:26 73° ENE 18:59:56 10° NNW
Cosmos 2263 Rocket 3.4 18:52:47 10° NW 18:58:00 42° WSW 19:03:11 10° S
Timation 2 Rocket 4.4 18:52:42 10° NW 18:58:48 63° WSW 19:05:07 10° SSE
MINOTAUR 4 R/B 4.2 18:59:27 65° SW 18:59:27 65° SW 19:02:30 10° SSW
ATLAS 5 CENTAUR R/B 3.6 18:57:31 10° WNW 19:00:14 17° NNW 19:01:38 15° N
BREEZE M DEB (TANK) 4.1 18:56:59 10° W 19:00:48 27° SW 19:01:26 25° SSW
Cosmos 1553 Rocket 4.0 18:55:57 10° SSE 19:01:48 51° E 19:07:42 10° NNE
Cosmos 2228 3.8 18:58:44 10° NNW 19:02:50 49° W 19:06:54 10° SSW
Cosmos 1763 Rocket 3.3 18:59:33 10° NNW 19:04:48 76° ENE 19:05:58 53° SE
Cosmos 1726 Rocket 3.8 19:03:42 10° N 19:07:07 54° N 19:07:07 54° N
ISS -2.4 19:07:40 10° WNW 19:09:56 39° WNW 19:09:56 39° WNW
IRIDIUM 106 4.1 19:05:56 10° N 19:11:10 73° E 19:12:35 48° SSE
SL-08 R/B 4.3 19:06:27 10° N 19:12:40 72° ENE 19:17:34 17° SSE
CZ-4B R/B 3.9 19:12:29 10° S 19:17:39 51° W 19:22:55 10° NNW
ATLAS 2AS CENTAUR R/B 2.6 19:12:11 10° NW 19:19:18 90° NW 19:21:32 47° SE
Cosmos 676 Rocket 4.5 19:14:30 10° S 19:18:23 47° SSE 19:18:23 47° SSE
ATLAS CENTAUR R/B 2.1 19:15:57 10° SW 19:20:35 54° NW 19:21:07 51° NNW
Cosmos 407 Rocket 4.3 19:22:53 10° SW 19:27:52 47° WNW 19:30:30 26° N
Cosmos 1844 3.7 19:22:08 10° NNW 19:27:34 68° NNE 19:27:34 68° NNE
Cosmos 1844 Rocket 2.6 19:25:42 10° NNW 19:31:01 79° N 19:31:01 79° N
Cosmos 2278 4.3 19:25:57 10° SW 19:31:29 53° NW 19:34:06 30° N
SL-4 R/B 3.8 19:32:08 10° W 19:33:53 27° W 19:33:53 27° W
Cosmos 540 Rocket 3.9 19:31:25 10° NNW 19:35:25 54° NNW 19:35:25 54° NNW
Cosmos 2360 Rocket 4.1 19:40:04 10° S 19:41:22 17° S 19:41:22 17° S
Cosmos 2278 Rocket 4.2 19:42:03 10° N 19:43:40 16° N 19:43:40 16° N
Meteor 1-27 4.5 19:43:32 10° NNW 19:49:20 69° W 19:49:42 67° WSW
CZ-4 R/B 3.6 19:47:52 10° SSW 19:51:19 25° W 19:54:44 10° NW
Cosmos 2322 Rocket 3.1 19:47:57 10° SSW 19:51:22 39° SSW 19:51:22 39° SSW
SL-16 R/B 2.8 19:58:29 10° SW 20:03:27 53° W 20:03:27 53° W
Lacrosse 5 4.4 20:21:01 10° SW 20:21:35 13° SW 20:21:35 13° SW
